Volver al catálogo

CZ-2C R/B

ActivoSSO
NORAD 40287·ROCKET BODY·🇨🇳 China

Lanzado Oct 27, 2014 desde Jiuquan Satellite Launch Center

Loading…

Próximos Pases (próximas 24 horas)

TLE

ActualizadoSource: Space-Track

Época: Sep 14, 2026, 07:58 UTC

1 40287U 14066B   26257.33196028  .00000386  00000-0  75527-4 0  9999
2 40287  97.7235 272.5780 0008593  17.5355 342.6146 14.67752453635428

Sigue CZ-2C R/B en tiempo real con AllMySat

Download on the App Store